When you browse on this site, cookies collect data to enhance your experience and personalize the content and advertising you see.
Visit our Privacy Policy to learn more. By continuing to use the site, you agree to this use of cookies and data.
EN

Hourly Weather Tadzhura

Today, 14 July, Tuesday

Time Temperature Precipitation Wind Pressure Humidity
00:00 +37°C° 0 mm 3 mps 749 mmHg 44%
01:00 +37°C° 0 mm 2 mps 749 mmHg 45%
02:00 +37°C° 0 mm 2 mps 748 mmHg 46%
03:00 +35°C° 0 mm 1 mps 748 mmHg 47%
04:00 +36°C° 0 mm 2 mps 749 mmHg 47%
05:00 +36°C° 0 mm 2 mps 750 mmHg 46%
06:00 +36°C° 0 mm 3 mps 750 mmHg 45%
07:00 +37°C° 0 mm 4 mps 750 mmHg 41%
08:00 +39°C° 0 mm 5 mps 750 mmHg 38%
09:00 +41°C° 0 mm 6 mps 751 mmHg 34%
10:00 +42°C° 0 mm 6 mps 750 mmHg 31%
11:00 +43°C° 0 mm 5 mps 750 mmHg 29%
12:00 +45°C° 0 mm 5 mps 750 mmHg 26%
13:00 +46°C° 0 mm 5 mps 749 mmHg 24%
14:00 +46°C° 0 mm 5 mps 748 mmHg 23%
15:00 +47°C° 0 mm 5 mps 747 mmHg 22%
16:00 +46°C° 0 mm 5 mps 747 mmHg 24%
17:00 +45°C° 0 mm 5 mps 747 mmHg 26%
18:00 +43°C° 0 mm 5 mps 747 mmHg 28%
19:00 +42°C° 0 mm 4 mps 748 mmHg 30%
20:00 +41°C° 0 mm 4 mps 748 mmHg 32%
21:00 +41°C° 0 mm 4 mps 748 mmHg 33%
22:00 +40°C° 0 mm 4 mps 749 mmHg 35%
23:00 +39°C° 0 mm 3 mps 749 mmHg 37%

Tomorrow, 15 July, Wednesday

Time Temperature Precipitation Wind Pressure Humidity
00:00 +38°C° 0 mm 3 mps 749 mmHg 38%
01:00 +38°C° 0 mm 2 mps 749 mmHg 40%
02:00 +37°C° 0 mm 2 mps 749 mmHg 41%
03:00 +36°C° 0 mm 1 mps 749 mmHg 43%
04:00 +37°C° 0 mm 2 mps 749 mmHg 42%
05:00 +37°C° 0 mm 2 mps 750 mmHg 41%
06:00 +37°C° 0 mm 2 mps 750 mmHg 40%
07:00 +38°C° 0 mm 3 mps 751 mmHg 36%
08:00 +39°C° 0 mm 3 mps 751 mmHg 33%
09:00 +41°C° 0 mm 4 mps 751 mmHg 30%
10:00 +42°C° 0 mm 4 mps 751 mmHg 27%
11:00 +45°C° 0 mm 5 mps 751 mmHg 24%
12:00 +46°C° 0 mm 5 mps 750 mmHg 21%
13:00 +47°C° 0 mm 4 mps 749 mmHg 21%
14:00 +47°C° 0 mm 4 mps 749 mmHg 21%
15:00 +46°C° 0 mm 3 mps 748 mmHg 21%
16:00 +45°C° 0 mm 4 mps 748 mmHg 24%
17:00 +45°C° 0 mm 5 mps 748 mmHg 27%
18:00 +44°C° 0 mm 6 mps 748 mmHg 31%
19:00 +42°C° 0 mm 5 mps 748 mmHg 32%
20:00 +41°C° 0 mm 5 mps 749 mmHg 34%
21:00 +40°C° 0 mm 4 mps 749 mmHg 35%
22:00 +40°C° 0 mm 4 mps 750 mmHg 33%
23:00 +40°C° 0 mm 3 mps 750 mmHg 31%

Day after tomorrow, 16 July, Thursday

Time Temperature Precipitation Wind Pressure Humidity
00:00 +40°C° 0 mm 3 mps 750 mmHg 29%
01:00 +39°C° 0 mm 2 mps 749 mmHg 29%
02:00 +39°C° 0 mm 2 mps 749 mmHg 30%
03:00 +39°C° 0 mm 1 mps 748 mmHg 31%
04:00 +38°C° 0 mm 2 mps 749 mmHg 33%
05:00 +38°C° 0 mm 3 mps 749 mmHg 35%
06:00 +38°C° 0 mm 3 mps 750 mmHg 37%
07:00 +39°C° 0 mm 5 mps 750 mmHg 37%
08:00 +39°C° 0 mm 6 mps 750 mmHg 37%
09:00 +40°C° 0 mm 8 mps 750 mmHg 38%
10:00 +41°C° 0 mm 8 mps 750 mmHg 35%
11:00 +43°C° 0 mm 8 mps 750 mmHg 32%
12:00 +44°C° 0 mm 9 mps 749 mmHg 29%
13:00 +45°C° 0 mm 8 mps 749 mmHg 27%
14:00 +45°C° 0 mm 7 mps 748 mmHg 26%
15:00 +46°C° 0 mm 6 mps 748 mmHg 24%
16:00 +45°C° 0 mm 5 mps 748 mmHg 26%
17:00 +43°C° 0 mm 4 mps 748 mmHg 28%
18:00 +42°C° 0 mm 3 mps 748 mmHg 29%
19:00 +42°C° 0.1 mm 3 mps 748 mmHg 31%
20:00 +40°C° 0.1 mm 3 mps 749 mmHg 32%
21:00 +39°C° 0.1 mm 3 mps 749 mmHg 34%
22:00 +39°C° 0 mm 3 mps 749 mmHg 33%
23:00 +39°C° 0 mm 3 mps 749 mmHg 32%

17 July, Friday

Time Temperature Precipitation Wind Pressure Humidity
00:00 +40°C° 0 mm 4 mps 749 mmHg 31%
01:00 +38°C° 0 mm 4 mps 749 mmHg 31%
02:00 +39°C° 0 mm 5 mps 749 mmHg 32%
03:00 +39°C° 0 mm 6 mps 748 mmHg 32%
04:00 +37°C° 0 mm 5 mps 749 mmHg 33%
05:00 +37°C° 0 mm 5 mps 749 mmHg 34%
06:00 +36°C° 0 mm 4 mps 750 mmHg 35%
07:00 +37°C° 0 mm 5 mps 750 mmHg 34%
08:00 +37°C° 0 mm 5 mps 750 mmHg 33%
09:00 +39°C° 0 mm 6 mps 751 mmHg 32%
10:00 +40°C° 0 mm 6 mps 751 mmHg 31%
11:00 +41°C° 0 mm 7 mps 750 mmHg 29%
12:00 +44°C° 0 mm 7 mps 750 mmHg 27%
13:00 +44°C° 0 mm 7 mps 749 mmHg 26%
14:00 +45°C° 0 mm 7 mps 748 mmHg 25%
15:00 +45°C° 0 mm 6 mps 748 mmHg 24%
16:00 +44°C° 0 mm 6 mps 748 mmHg 26%
17:00 +44°C° 0 mm 6 mps 748 mmHg 28%
18:00 +42°C° 0 mm 6 mps 747 mmHg 29%
19:00 +41°C° 0 mm 6 mps 748 mmHg 31%
20:00 +40°C° 0 mm 6 mps 749 mmHg 33%
21:00 +40°C° 0 mm 6 mps 749 mmHg 35%
22:00 +39°C° 0 mm 6 mps 749 mmHg 37%
23:00 +39°C° 0 mm 5 mps 749 mmHg 39%

18 July, Saturday

Time Temperature Precipitation Wind Pressure Humidity
00:00 +39°C° 0 mm 5 mps 749 mmHg 42%
01:00 +39°C° 0 mm 5 mps 748 mmHg 41%
02:00 +37°C° 0 mm 4 mps 748 mmHg 41%
03:00 +37°C° 0 mm 3 mps 748 mmHg 41%
04:00 +37°C° 0 mm 3 mps 749 mmHg 43%
05:00 +37°C° 0 mm 3 mps 749 mmHg 44%
06:00 +36°C° 0 mm 3 mps 750 mmHg 46%
07:00 +37°C° 0 mm 3 mps 750 mmHg 42%
08:00 +38°C° 0 mm 4 mps 750 mmHg 39%
09:00 +40°C° 0 mm 5 mps 751 mmHg 36%
10:00 +41°C° 0 mm 5 mps 750 mmHg 33%
11:00 +42°C° 0 mm 5 mps 750 mmHg 30%
12:00 +44°C° 0 mm 6 mps 749 mmHg 27%
13:00 +45°C° 0 mm 5 mps 748 mmHg 26%
14:00 +45°C° 0 mm 5 mps 748 mmHg 25%
15:00 +45°C° 0 mm 4 mps 747 mmHg 24%
16:00 +45°C° 0 mm 6 mps 747 mmHg 25%
17:00 +45°C° 0 mm 7 mps 747 mmHg 27%
18:00 +44°C° 0 mm 9 mps 747 mmHg 29%
19:00 +43°C° 0.1 mm 8 mps 748 mmHg 32%
20:00 +40°C° 0.1 mm 8 mps 748 mmHg 36%
21:00 +39°C° 0.1 mm 8 mps 749 mmHg 40%
22:00 +39°C° 0 mm 6 mps 749 mmHg 41%
23:00 +37°C° 0 mm 5 mps 749 mmHg 43%

19 July, Sunday

Time Temperature Precipitation Wind Pressure Humidity
00:00 +37°C° 0 mm 3 mps 749 mmHg 45%
01:00 +37°C° 0 mm 3 mps 749 mmHg 44%
02:00 +37°C° 0 mm 3 mps 749 mmHg 44%
03:00 +37°C° 0 mm 2 mps 749 mmHg 44%
04:00 +36°C° 0 mm 4 mps 749 mmHg 46%
05:00 +35°C° 0 mm 5 mps 749 mmHg 47%
06:00 +35°C° 0 mm 6 mps 750 mmHg 48%
07:00 +36°C° 0 mm 6 mps 750 mmHg 46%
08:00 +38°C° 0 mm 7 mps 751 mmHg 43%
09:00 +39°C° 0 mm 7 mps 751 mmHg 40%
10:00 +40°C° 0 mm 8 mps 750 mmHg 37%
11:00 +41°C° 0 mm 8 mps 750 mmHg 35%
12:00 +42°C° 0 mm 9 mps 749 mmHg 32%
13:00 +43°C° 0 mm 8 mps 749 mmHg 31%
14:00 +44°C° 0 mm 8 mps 748 mmHg 29%
15:00 +45°C° 0 mm 7 mps 747 mmHg 28%
16:00 +44°C° 0 mm 7 mps 747 mmHg 28%
17:00 +43°C° 0 mm 7 mps 747 mmHg 28%
18:00 +42°C° 0 mm 6 mps 747 mmHg 28%
19:00 +41°C° 0 mm 6 mps 748 mmHg 30%
20:00 +40°C° 0 mm 6 mps 748 mmHg 33%
21:00 +40°C° 0 mm 5 mps 749 mmHg 35%
22:00 +38°C° 0 mm 4 mps 749 mmHg 37%
23:00 +38°C° 0 mm 3 mps 749 mmHg 38%
Show more